Wind_Speed
2 1 2 6 5 5 3 4 7 7 8 13 9 11 12 12 7 5 14 12 18 19 17 15 14 12 13 13 12 12 13 12 12 10 9 8 8 9 9 9 11 10 10 11 11 10 9 10 9
2 4 6 10 3 6 3 7 8 12 12 7 6 3 4 11 13 12 12 16 19 18 18 16 15 11 10 11 11 11 11 11 10 8 6 7 9 8 11 11 10 11 11 11 10 11 11 11 10
1 6 12 5 1 5 5 9 12 10 6 3 4 5 5 10 4 8 14 19 21 18 16 17 14 10 9 8 8 9 9 8 7 6 7 7 7 10 11 7 8 9 9 10 9 10 11 12 12
3 5 8 10 5 5 5 8 9 8 5 4 2 11 8 7 4 8 17 18 20 19 17 20 15 11 10 9 8 7 7 8 8 6 5 6 8 11 10 9 10 10 8 9 9 11 12 12 10
5 10 9 10 7 1 11 8 4 3 6 6 5 10 7 6 7 15 17 15 17 20 16 17 19 10 10 10 9 8 7 8 9 8 11 9 9 9 10 11 8 9 9 9 10 11 10 8 7
12 4 6 5 7 3 5 7 3 6 7 5 2 2 8 6 13 16 16 14 12 13 14 14 14 16 14 10 9 7 8 9 9 10 12 12 11 12 10 11 9 9 9 9 9 9 7 7 6
8 7 8 2 5 2 5 5 2 6 1 12 2 6 9 11 16 15 15 14 15 20 14 12 15 15 14 13 15 10 10 9 8 8 12 12 13 14 12 9 8 9 9 8 8 7 5 5 3
10 6 3 6 3 7 1 4 5 6 13 4 6 2 10 15 18 16 14 15 13 13 15 13 12 12 12 13 11 11 11 11 11 14 12 13 15 13 11 8 8 8 8 6 5 4 3 3 2
7 4 4 2 1 6 3 2 2 1 5 4 4 7 16 15 17 16 14 13 14 11 11 13 13 12 10 12 10 6 18 13 16 16 11 11 11 12 6 9 5 6 7 5 4 5 5 4 3
5 3 5 6 6 3 8 4 5 7 7 7 8 10 14 16 14 13 12 11 11 12 12 11 11 12 9 11 17 11 16 16 16 12 14 11 11 13 14 6 5 5 6 7 7 7 6 6 10
6 7 9 6 5 8 1 4 8 9 6 7 9 12 15 16 12 12 12 14 13 12 9 10 11 14 10 12 15 16 19 18 10 11 14 10 9 7 6 4 5 5 6 4 5 5 5 3 7
5 6 5 5 6 7 7 1 8 1 8 8 9 13 15 16 16 14 8 6 10 8 10 10 10 13 12 14 15 18 22 17 11 10 13 11 13 8 7 5 7 8 3 5 3 1 3 4 5
7 6 4 4 4 4 5 7 7 5 5 8 12 13 13 12 11 8 7 7 7 9 9 12 12 13 13 13 14 19 14 14 11 8 9 8 6 7 8 7 6 8 6 3 2 1 3 5 5
5 1 3 2 2 4 6 7 12 10 11 11 12 12 12 11 10 8 5 4 7 10 12 12 12 13 15 16 20 18 14 12 9 9 9 9 6 7 6 6 6 5 4 3 1 3 1 3 2
4 8 6 7 6 5 1 6 4 16 12 12 12 11 12 11 10 8 6 3 7 10 11 13 13 14 15 20 16 16 15 13 9 11 7 7 6 9 6 7 6 5 5 3 1 3 5 3 4
6 6 7 9 11 9 8 4 5 7 12 13 12 12 11 12 11 8 6 5 9 9 14 14 12 13 16 20 19 11 11 12 10 9 7 7 8 7 11 7 5 5 4 2 3 6 4 6 7
12 5 5 8 8 2 9 4 8 8 11 12 14 13 13 13 12 10 8 7 10 15 17 15 14 15 16 17 19 10 13 10 12 10 8 8 6 7 8 7 7 6 3 1 6 5 1 13 10
8 10 8 5 9 8 9 6 10 13 12 14 14 15 15 13 13 12 10 10 13 14 17 19 16 12 16 17 14 10 10 18 10 10 8 9 6 7 9 7 7 6 4 4 3 7 8 8 12
10 8 9 6 4 7 9 7 17 20 17 18 16 17 16 15 14 14 13 12 15 15 16 17 16 15 19 18 11 12 10 5 9 9 5 7 7 8 11 6 7 6 5 4 1 5 10 12 9
10 11 8 5 4 10 6 7 11 18 19 19 19 20 20 21 18 16 16 16 16 17 17 18 18 17 18 13 10 13 9 11 8 8 6 8 7 8 8 7 7 8 6 7 4 4 6 10 9
13 8 9 9 8 7 7 9 15 17 20 22 24 25 21 22 22 19 19 19 19 19 19 19 18 19 19 14 14 12 13 3 10 9 8 9 9 9 8 10 5 8 8 5 4 5 6 8 9
14 7 9 11 13 1 16 2 11 17 19 19 25 27 25 23 22 22 21 22 22 21 20 20 20 20 21 18 15 15 13 10 12 12 9 10 11 10 9 8 8 7 7 8 6 7 7 7 8
13 8 12 11 15 15 6 10 8 16 16 17 24 25 26 24 22 25 23 23 23 22 21 21 22 22 21 25 20 15 15 13 13 12 15 10 10 10 10 9 9 9 8 9 11 7 8 7 7
11 13 17 16 15 11 12 9 7 4 2 13 22 27 27 25 26 23 23 23 24 23 22 21 23 24 23 22 24 19 15 14 12 13 9 9 12 10 11 9 9 9 9 9 7 8 9 8 8
11 14 14 10 8 7 17 8 10 8 5 4 10 24 27 28 27 27 25 25 25 26 24 23 24 24 25 23 22 23 19 16 14 9 13 14 14 15 16 12 10 10 10 10 8 9 9 9 8
15 13 12 14 10 12 8 3 4 1 5 2 7 8 24 27 28 28 27 27 25 27 26 25 25 24 23 24 23 21 19 16 17 15 13 14 9 14 12 9 10 10 10 10 9 9 9 10 8
17 16 13 15 17 13 8 4 5 7 7 7 6 7 13 23 28 28 27 29 27 27 27 27 27 25 24 24 22 23 22 20 17 18 14 17 18 14 11 9 11 12 13 13 12 10 10 11 7
16 17 11 11 12 13 6 9 6 10 9 6 5 7 7 13 22 26 28 28 27 27 26 26 26 25 25 25 24 22 21 22 20 18 19 17 16 17 14 10 12 13 12 11 14 12 12 11 9
8 13 14 15 12 12 10 4 8 2 1 7 7 4 8 10 17 24 26 26 26 26 25 26 26 25 24 25 24 23 22 21 20 20 20 20 19 18 18 17 15 13 12 12 13 13 16 8 11
14 16 14 12 17 11 12 11 10 7 2 3 11 7 9 10 14 19 24 25 25 26 25 25 26 25 24 25 27 25 24 22 20 20 21 20 19 19 19 19 19 17 16 15 15 15 14 15 14
Wind_Direction
324 9 294 260 255 192 138 126 119 106 80 59 52 24 59 54 17 84 131 132 141 146 155 144 143 146 153 158 153 149 152 157 152 149 143 140 125 125 120 124 125 115 117 128 123 124 124 124 122
224 277 275 262 253 358 56 77 90 62 76 99 98 99 133 90 77 120 130 138 145 150 146 148 138 150 147 149 149 153 157 163 162 157 149 138 135 129 128 125 117 116 116 121 121 123 122 121 121
112 252 261 264 274 192 82 89 95 89 90 42 105 354 12 60 100 110 141 150 136 141 151 142 143 148 151 148 146 150 154 162 166 160 141 141 146 131 129 115 107 114 119 125 128 124 124 125 126
286 227 248 259 65 32 91 96 117 131 117 47 349 102 94 54 122 144 141 146 152 147 150 171 150 162 153 146 146 154 162 168 162 163 155 144 144 136 130 131 125 126 128 128 129 128 132 133 132
303 262 266 246 15 100 105 105 145 140 61 52 335 100 75 64 126 145 150 151 156 163 147 165 174 176 163 163 172 181 185 183 168 162 176 158 144 140 146 148 136 136 141 130 135 136 137 138 135
269 238 309 318 118 228 126 147 142 87 59 57 157 109 104 142 141 142 149 153 156 169 180 176 172 187 188 181 191 202 196 194 190 201 187 156 164 159 153 159 150 144 135 135 146 147 145 139 132
321 315 258 287 171 144 111 104 226 79 140 63 1 38 103 136 146 148 148 144 163 151 140 174 193 191 188 199 193 199 193 173 163 183 181 165 170 158 165 161 156 140 133 142 155 163 157 147 131
289 253 347 118 163 21 187 153 54 320 80 86 347 60 148 150 154 151 149 150 144 167 157 163 155 169 175 184 194 218 207 177 160 175 156 161 170 166 164 169 153 148 140 151 161 164 152 140 113
292 269 314 341 27 311 25 48 143 8 141 56 47 34 115 148 156 160 161 165 157 152 162 177 189 180 196 204 195 180 172 160 164 143 151 147 139 131 143 166 182 157 136 137 129 124 125 111 45
347 349 351 353 328 307 180 222 216 211 167 119 96 111 129 147 161 164 172 176 177 173 167 179 171 179 172 179 190 200 171 150 146 143 153 133 139 149 171 196 173 148 121 102 103 92 73 44 283
325 2 339 297 290 303 86 248 301 244 10 187 115 139 143 149 162 172 181 186 185 177 176 183 184 183 182 186 183 174 163 157 158 156 150 145 147 164 153 161 137 96 109 43 35 9 35 336 334
298 24 16 297 295 267 236 283 278 201 201 98 128 149 153 170 180 185 169 129 131 156 170 185 177 173 175 162 172 160 164 167 158 164 147 161 155 174 161 166 161 159 151 158 143 356 11 348 331
13 13 338 8 273 270 253 240 231 187 110 112 134 154 160 169 153 158 156 160 173 179 177 171 183 166 166 155 157 147 159 154 148 141 135 194 162 156 158 187 151 162 160 160 96 346 357 331 333
6 324 352 101 171 214 211 227 234 149 148 135 145 163 163 170 166 156 175 171 183 185 187 189 167 168 154 145 140 145 166 178 152 133 184 154 159 161 178 159 154 173 159 153 131 277 313 280 2
287 278 200 152 177 160 172 264 203 212 150 146 166 173 159 172 173 179 183 191 181 184 179 183 159 157 153 158 151 148 186 145 166 171 161 164 149 175 167 167 157 164 157 100 41 286 241 222 230
260 282 177 135 181 172 202 172 158 165 187 170 168 175 174 173 172 175 173 157 157 162 161 149 146 151 157 160 154 145 174 164 161 160 168 169 172 171 145 181 175 184 137 139 239 262 309 275 228
242 331 20 145 193 199 225 142 227 206 201 205 179 174 182 182 175 177 173 161 162 166 161 157 154 160 165 165 165 165 162 175 162 165 173 169 175 177 164 185 196 171 186 214 253 278 215 302 299
345 326 322 352 151 210 233 166 178 195 233 211 193 177 185 183 187 177 176 166 165 164 169 168 146 172 171 170 171 166 177 165 147 179 180 208 188 195 161 197 204 165 203 234 263 286 324 285 303
292 298 298 49 137 231 235 193 184 183 190 239 199 188 194 183 190 178 180 172 163 165 165 169 168 174 177 171 177 174 187 155 181 187 166 204 196 206 174 198 207 182 237 220 211 280 291 307 327
286 275 10 150 214 218 258 257 232 184 200 202 210 215 199 184 186 180 184 180 175 170 171 175 185 177 172 165 179 183 169 184 199 201 190 200 204 199 186 192 203 207 216 245 254 267 291 289 302
269 350 342 315 278 239 268 342 248 212 195 217 209 223 206 195 184 181 188 188 184 181 179 180 177 183 175 186 199 200 176 218 183 198 213 205 204 198 181 199 214 215 203 252 236 279 280 291 305
291 10 308 289 287 165 223 114 328 194 200 199 215 212 220 200 192 188 189 192 191 190 187 188 183 185 184 176 187 189 195 190 197 199 207 194 197 201 204 217 228 219 221 241 265 286 253 283 290
292 324 308 293 293 291 34 278 219 162 187 201 206 221 214 214 197 191 188 193 193 191 191 193 192 193 195 189 181 200 206 210 207 201 218 185 210 199 205 222 237 242 243 265 245 257 281 266 274
288 277 262 251 248 251 255 325 85 209 132 178 193 209 215 210 203 195 193 191 194 192 191 195 199 201 192 202 196 197 215 218 209 205 225 197 209 213 214 218 229 231 232 253 263 259 270 260 256
235 259 271 260 223 268 224 289 143 224 34 190 182 189 205 211 206 193 195 191 193 192 193 193 200 199 203 202 208 215 212 222 222 219 225 219 222 219 226 229 227 237 249 224 249 253 254 270 258
242 253 290 308 309 332 185 287 117 48 76 178 162 191 189 207 207 201 194 195 194 195 195 195 199 199 201 204 209 214 213 216 220 228 223 227 224 236 219 241 228 244 241 250 251 254 254 258 262
243 257 283 289 286 263 263 148 219 104 105 146 182 167 193 193 199 209 193 196 196 197 197 198 200 201 203 208 209 212 217 211 217 217 227 217 219 231 233 206 232 245 245 245 244 253 242 257 261
261 268 248 223 258 267 287 313 245 163 110 136 165 171 197 200 197 201 193 198 197 201 199 200 202 204 202 207 209 211 212 216 210 217 216 220 227 235 234 231 232 236 235 256 247 233 248 242 240
184 234 251 274 293 310 290 42 5 294 189 173 175 175 165 191 198 196 195 194 198 201 200 203 204 206 205 209 209 209 214 214 214 214 222 223 223 224 230 230 228 232 238 242 242 243 251 254 236
250 265 221 228 235 247 294 291 180 145 148 244 156 158 151 172 183 191 196 195 197 200 202 199 204 205 209 211 209 210 211 213 218 220 222 225 226 227 229 229 235 235 235 239 242 248 236 251 251
Height
1517 1518 1520 1519 1518 1495 1498 1494 1484 1490 1495 1497 1501 1499 1502 1509 1512 1526 1526 1530 1531 1533 1534 1539 1542 1545 1547 1547 1549 1550 1552 1554 1556 1557 1559 1560 1560 1562 1562 1562 1562 1563 1564 1567 1567 1568 1568 1568 1567
1522 1522 1520 1512 1513 1522 1498 1483 1493 1493 1499 1503 1504 1504 1504 1512 1517 1523 1526 1531 1533 1536 1537 1539 1541 1546 1548 1549 1551 1553 1554 1555 1557 1559 1560 1561 1562 1563 1563 1563 1565 1565 1566 1567 1568 1569 1569 1569 1568
1521 1521 1516 1500 1501 1526 1500 1489 1494 1502 1503 1501 1503 1507 1507 1514 1522 1524 1526 1530 1532 1536 1539 1539 1544 1547 1550 1551 1552 1554 1555 1557 1558 1560 1561 1562 1563 1565 1565 1566 1565 1567 1568 1569 1570 1570 1570 1570 1569
1522 1519 1514 1504 1515 1488 1495 1495 1498 1501 1504 1507 1506 1505 1518 1521 1524 1526 1528 1530 1531 1534 1538 1540 1539 1549 1550 1552 1553 1554 1556 1558 1559 1561 1562 1563 1564 1564 1566 1567 1569 1569 1570 1570 1571 1571 1572 1571 1571
1521 1512 1507 1502 1518 1492 1495 1496 1499 1501 1502 1505 1508 1506 1517 1523 1526 1527 1530 1532 1533 1533 1536 1540 1545 1548 1550 1552 1553 1555 1557 1558 1559 1561 1559 1562 1565 1567 1567 1569 1570 1571 1571 1572 1573 1573 1573 1573 1573
1515 1509 1517 1520 1514 1494 1494 1499 1498 1501 1507 1510 1507 1508 1522 1525 1527 1529 1531 1533 1534 1535 1536 1540 1539 1546 1549 1551 1553 1557 1557 1558 1560 1561 1564 1564 1567 1566 1569 1570 1571 1572 1572 1573 1574 1575 1574 1574 1574
1514 1508 1516 1512 1503 1503 1498 1499 1499 1500 1503 1508 1512 1506 1522 1527 1529 1530 1532 1535 1534 1536 1539 1541 1545 1547 1548 1551 1552 1557 1558 1557 1560 1562 1563 1565 1567 1568 1570 1571 1572 1573 1573 1574 1575 1575 1575 1575 1574
1517 1510 1506 1511 1512 1516 1500 1501 1505 1502 1506 1513 1514 1509 1520 1527 1529 1532 1533 1535 1538 1540 1543 1543 1545 1546 1548 1550 1553 1555 1557 1556 1560 1563 1563 1566 1568 1569 1571 1572 1573 1574 1574 1575 1575 1576 1576 1576 1575
1516 1517 1522 1506 1507 1512 1504 1506 1509 1510 1509 1513 1516 1513 1518 1526 1530 1532 1535 1537 1539 1541 1542 1544 1544 1546 1548 1550 1553 1553 1552 1555 1562 1561 1564 1567 1571 1571 1573 1574 1575 1575 1575 1575 1576 1577 1577 1576 1574
1511 1514 1514 1510 1507 1506 1509 1509 1504 1506 1504 1511 1516 1518 1523 1528 1531 1533 1535 1537 1539 1541 1542 1543 1544 1546 1548 1550 1551 1553 1555 1558 1561 1562 1567 1570 1571 1574 1575 1575 1576 1576 1576 1577 1578 1578 1578 1576 1562
1510 1514 1515 1513 1512 1511 1509 1510 1505 1503 1510 1511 1513 1520 1525 1529 1532 1533 1535 1536 1537 1539 1543 1543 1544 1545 1547 1550 1551 1551 1556 1561 1564 1565 1567 1571 1573 1575 1576 1576 1576 1577 1578 1578 1579 1578 1578 1578 1574
1511 1511 1514 1516 1516 1513 1512 1512 1512 1506 1518 1509 1515 1520 1524 1527 1529 1531 1533 1535 1538 1539 1542 1543 1544 1545 1547 1548 1550 1553 1557 1561 1565 1567 1569 1572 1572 1575 1576 1578 1579 1580 1581 1581 1581 1580 1578 1579 1578
1508 1512 1514 1515 1514 1514 1512 1511 1511 1507 1511 1512 1517 1521 1522 1524 1528 1530 1532 1534 1537 1540 1541 1543 1544 1545 1547 1549 1551 1555 1559 1562 1565 1567 1569 1571 1572 1575 1576 1577 1579 1580 1580 1581 1581 1581 1578 1579 1578
1511 1513 1512 1514 1514 1513 1512 1511 1506 1505 1510 1515 1518 1519 1521 1524 1527 1530 1533 1534 1536 1538 1540 1540 1544 1545 1547 1550 1553 1556 1560 1560 1566 1567 1571 1571 1573 1574 1576 1577 1579 1579 1579 1580 1581 1579 1576 1575 1575
1510 1505 1503 1511 1513 1511 1515 1513 1505 1511 1509 1514 1516 1519 1521 1524 1527 1530 1532 1533 1534 1537 1539 1541 1543 1546 1548 1551 1555 1558 1559 1563 1563 1567 1569 1572 1572 1573 1576 1578 1579 1579 1579 1579 1578 1574 1572 1573 1567
1504 1499 1509 1502 1509 1507 1512 1517 1505 1507 1508 1510 1513 1517 1520 1523 1526 1529 1531 1532 1533 1534 1538 1541 1545 1548 1549 1552 1555 1559 1562 1563 1568 1569 1571 1572 1572 1573 1574 1578 1579 1578 1579 1579 1576 1572 1585 1575 1566
1497 1500 1496 1497 1499 1499 1504 1505 1506 1506 1506 1508 1510 1514 1519 1521 1524 1528 1530 1532 1533 1536 1538 1543 1545 1547 1549 1552 1556 1559 1560 1561 1567 1569 1571 1572 1573 1573 1576 1578 1579 1578 1580 1578 1574 1569 1579 1567 1568
1504 1498 1490 1492 1491 1497 1496 1500 1505 1505 1506 1505 1506 1512 1516 1519 1521 1525 1528 1531 1533 1535 1537 1540 1545 1547 1549 1552 1556 1560 1562 1562 1563 1569 1570 1571 1574 1574 1575 1578 1578 1578 1580 1579 1575 1569 1571 1571 1557
1492 1492 1489 1483 1485 1491 1488 1489 1496 1499 1505 1503 1502 1507 1510 1514 1519 1522 1527 1530 1533 1535 1537 1540 1545 1547 1549 1553 1557 1560 1562 1563 1566 1569 1568 1572 1574 1574 1574 1577 1578 1578 1578 1577 1577 1574 1567 1559 1566
1488 1484 1482 1480 1481 1487 1486 1489 1488 1491 1494 1496 1502 1502 1504 1510 1514 1520 1525 1528 1532 1534 1538 1540 1542 1545 1550 1554 1558 1559 1561 1564 1565 1568 1570 1572 1573 1572 1575 1576 1577 1577 1578 1578 1578 1575 1571 1564 1566
1480 1486 1487 1483 1474 1485 1491 1512 1483 1485 1489 1493 1495 1496 1497 1503 1507 1514 1521 1526 1530 1533 1536 1540 1542 1545 1549 1555 1556 1558 1560 1561 1566 1567 1570 1571 1573 1573 1574 1575 1575 1576 1577 1578 1577 1576 1574 1570 1565
1487 1481 1479 1477 1474 1493 1476 1516 1497 1479 1481 1483 1488 1489 1492 1495 1502 1509 1516 1522 1527 1531 1535 1538 1541 1544 1547 1551 1556 1557 1560 1562 1563 1566 1568 1569 1571 1573 1574 1575 1575 1576 1578 1577 1577 1575 1574 1573 1571
1486 1481 1477 1474 1471 1465 1512 1487 1499 1470 1476 1476 1483 1486 1488 1491 1497 1504 1511 1518 1523 1529 1533 1537 1539 1542 1546 1549 1553 1557 1558 1561 1562 1564 1565 1569 1570 1572 1573 1574 1575 1576 1576 1577 1576 1574 1574 1574 1572
1483 1483 1473 1466 1462 1475 1486 1462 1485 1490 1458 1460 1471 1481 1485 1489 1493 1501 1506 1514 1520 1525 1530 1534 1537 1539 1543 1546 1550 1554 1557 1556 1562 1564 1563 1566 1569 1570 1572 1574 1574 1575 1575 1575 1575 1573 1573 1572 1572
1481 1482 1484 1479 1489 1511 1477 1464 1484 1454 1451 1455 1459 1470 1481 1486 1489 1495 1502 1508 1515 1520 1525 1530 1535 1537 1540 1544 1547 1550 1554 1557 1559 1561 1564 1565 1566 1567 1567 1569 1572 1573 1573 1573 1574 1573 1572 1571 1572
1474 1474 1482 1500 1481 1469 1453 1468 1459 1447 1450 1456 1460 1463 1471 1479 1485 1490 1497 1504 1510 1516 1521 1526 1530 1534 1538 1540 1543 1547 1550 1554 1557 1559 1561 1563 1564 1564 1565 1566 1570 1571 1572 1572 1572 1572 1571 1571 1570
1476 1481 1464 1474 1462 1465 1451 1444 1439 1443 1448 1454 1457 1461 1464 1470 1478 1484 1492 1500 1507 1512 1517 1522 1526 1530 1534 1538 1540 1543 1546 1549 1554 1556 1557 1559 1562 1564 1565 1565 1568 1568 1570 1570 1570 1571 1570 1569 1569
1470 1461 1475 1468 1495 1493 1461 1464 1452 1445 1449 1453 1457 1460 1465 1467 1473 1480 1487 1495 1502 1509 1514 1519 1523 1526 1530 1535 1537 1540 1542 1545 1549 1553 1554 1557 1559 1561 1562 1562 1564 1565 1566 1567 1567 1567 1569 1567 1568
1466 1471 1467 1464 1464 1479 1479 1465 1453 1448 1447 1448 1454 1459 1464 1468 1471 1477 1483 1491 1498 1505 1510 1515 1520 1524 1527 1531 1534 1537 1540 1542 1544 1548 1550 1552 1555 1556 1558 1559 1561 1562 1563 1564 1564 1565 1565 1565 1565
1451 1453 1454 1470 1477 1464 1464 1459 1431 1441 1445 1446 1449 1459 1464 1468 1471 1476 1483 1488 1495 1500 1505 1510 1515 1519 1523 1527 1530 1532 1536 1539 1542 1543 1546 1548 1550 1552 1553 1554 1556 1557 1559 1561 1561 1561 1563 1563 1563